Middletown, PA

8:23 PM EDT on August 23, 2017 (GMT -0400)
Harrisburg International

Weather History for KMDT - August, 2013

Change the Weather History Date:

Monday, August 5, 2013

  Actual Average Record
Temperature  
Mean Temperature 69 °F 75 °F  
Max Temperature 78 °F 85 °F 100 °F (1955)
Min Temperature 59 °F 66 °F 49 °F (1951)
Degree Days  
Heating Degree Days 0 0  
Month to date heating degree days 0 0  
Since 1 June heating degree days 2 18  
Since 1 July heating degree days 0 0  
Cooling Degree Days 4 10  
Month to date cooling degree days 32 50  
Year to date cooling degree days 747 666  
Since 1 June cooling degree days 664 601  
Growing Degree Days 18 (Base 50)    
Moisture  
Dew Point 52 °F    
Average Humidity 60    
Maximum Humidity 84    
Minimum Humidity 36    
Precipitation  
Precipitation 0.00 in 0.11 in 2.55 in (1986)
Month to date precipitation 0.08 0.57  
Year to date precipitation 21.24 24.31  
Sea Level Pressure  
Sea Level Pressure 30.06 in    
Wind  
Wind Speed 3 mph (NNW)    
Max Wind Speed 10 mph    
Max Gust Speed 14 mph    
Visibility 10 miles    
Events      
T = Trace of Precipitation, MM = Missing Value Source: NWS Daily Summary

Daily Weather History Graph

Daily Weather History Graph

Search for Another Location

Airport or City:

Trip Planner

Search our weather history database for the weather conditions in past years. The results will help you decide how hot, cold, wet, or windy it might be!

Date:

Astronomy

Aug. 05, 2013 Rise Set
Actual Time 6:08 AM EDT 8:16 PM EDT
Civil Twilight 5:38 AM EDT 8:46 PM EDT
Nautical Twilight 5:02 AM EDT 9:22 PM EDT
Astronomical Twilight 4:21 AM EDT 10:02 PM EDT
Moon 5:02 AM EDT (8/5) 7:15 PM EDT (8/5)
Length of Visible Light 15h 07m
Length of Day
14h 07m
Waning Crescent, 1% of the Moon is Illuminated
Aug 5
Waning Crescent
Aug 6
New
Aug 14
First Quarter
Aug 20
Full
Aug 28
Last Quarter

Hourly Weather History & Observations

Time (EDT) Temp. Dew Point Humidity Pressure Visibility Wind Dir Wind Speed Gust Speed Precip Events Conditions
12:56 AM 63.0 °F 55.0 °F 75% 30.04 in 10.0 mi NW 5.8 mph - N/A   Scattered Clouds
1:56 AM 63.0 °F 55.9 °F 78% 30.04 in 10.0 mi Calm Calm - N/A   Mostly Cloudy
2:56 AM 61.0 °F 55.0 °F 81% 30.05 in 10.0 mi Calm Calm - N/A   Mostly Cloudy
3:56 AM 62.1 °F 54.0 °F 75% 30.06 in 10.0 mi NNW 4.6 mph - N/A   Mostly Cloudy
4:56 AM 61.0 °F 54.0 °F 78% 30.05 in 10.0 mi West 3.5 mph - N/A   Scattered Clouds
5:56 AM 60.1 °F 54.0 °F 80% 30.07 in 10.0 mi Calm Calm - N/A   Clear
6:56 AM 61.0 °F 55.0 °F 81% 30.09 in 10.0 mi Calm Calm - N/A   Clear
7:56 AM 64.0 °F 55.0 °F 73% 30.10 in 10.0 mi NW 6.9 mph - N/A   Clear
8:56 AM 66.9 °F 52.0 °F 59% 30.11 in 10.0 mi NNW 6.9 mph - N/A   Clear
9:56 AM 69.1 °F 48.9 °F 49% 30.11 in 10.0 mi NNE 4.6 mph - N/A   Clear
10:56 AM 71.1 °F 50.0 °F 47% 30.10 in 10.0 mi NNE 4.6 mph - N/A   Partly Cloudy
11:56 AM 73.0 °F 50.0 °F 44% 30.09 in 10.0 mi NW 9.2 mph - N/A   Partly Cloudy
12:56 PM 73.9 °F 51.1 °F 45% 30.08 in 10.0 mi West 8.1 mph - N/A   Scattered Clouds
1:56 PM 75.0 °F 48.9 °F 40% 30.06 in 10.0 mi West 5.8 mph - N/A   Scattered Clouds
2:56 PM 75.9 °F 48.0 °F 37% 30.04 in 10.0 mi Calm Calm - N/A   Mostly Cloudy
3:56 PM 77.0 °F 48.0 °F 36% 30.03 in 10.0 mi Calm Calm - N/A   Mostly Cloudy
4:56 PM 75.0 °F 48.0 °F 38% 30.02 in 10.0 mi Calm Calm - N/A   Mostly Cloudy
5:56 PM 75.0 °F 48.9 °F 40% 30.02 in 10.0 mi NNE 5.8 mph - N/A   Mostly Cloudy
6:56 PM 73.0 °F 51.1 °F 46% 30.04 in 10.0 mi ENE 4.6 mph - N/A   Mostly Cloudy
7:56 PM 72.0 °F 51.1 °F 48% 30.04 in 10.0 mi East 5.8 mph - N/A   Overcast
8:56 PM 69.1 °F 52.0 °F 54% 30.04 in 10.0 mi Calm Calm - N/A   Mostly Cloudy
9:56 PM 68.0 °F 54.0 °F 61% 30.05 in 10.0 mi SSE 3.5 mph - N/A   Mostly Cloudy
10:56 PM 66.0 °F 52.0 °F 60% 30.04 in 10.0 mi Calm Calm - N/A   Mostly Cloudy
11:56 PM 64.0 °F 53.1 °F 67% 30.04 in 10.0 mi Calm Calm - N/A   Scattered Clouds